Regional Weather Roundup
Issued by NWS

Home | Current Version | Previous Version | Graphics & Text | Print | Product List | Glossary On
Versions: 1 2 3 4 5 6 7 8 9 10 11 12 13 14 15 16 17 18 19 20 21 22 23 24 25 26 27
000
ASUS45 KBOI 252310
RWRID

IDAHO REGIONAL WEATHER ROUNDUP
NATIONAL WEATHER SERVICE BOISE ID
500 PM MDT THU MAY 25 2017

NOTE: "FAIR" INDICATES FEW OR NO CLOUDS BELOW 12000 FEET
WITH NO SIGNIFICANT WEATHER AND/OR OBSTRUCTIONS TO VISIBILITY

IDZ012-014-260000-
SOUTHWEST IDAHO


CITY           SKY/WX    TMP DP  RH WIND       PRES   REMARKS
BOISE          FAIR      64  31  28 VRB6      29.72F
CALDWELL       FAIR      64  35  34 W15       29.73F
MOUNTAIN HOME  FAIR      65  29  26 NW6       29.72F
$$

IDZ016-017-260000-
SOUTHCENTRAL IDAHO


CITY           SKY/WX    TMP DP  RH WIND       PRES   REMARKS
BURLEY         CLOUDY    60  27  28 CALM      29.74F
JEROME         FAIR      61  25  25 W8        29.75F
TWIN FALLS     PTSUNNY   61  29  29 W8        29.74F
$$

IDZ019>023-260000-
SOUTHEAST IDAHO


CITY           SKY/WX    TMP DP  RH WIND       PRES   REMARKS
IDAHO FALLS    MOSUNNY   63  25  23 MISG      29.77S
POCATELLO      MOSUNNY   63  24  22 VRB6      29.77F
REXBURG        SUNNY     59  20  22 CALM      29.76F
$$

IDZ006-010-011-018-031-032-260000-
CENTRAL IDAHO MOUNTAINS


CITY           SKY/WX    TMP DP  RH WIND       PRES   REMARKS
MCCALL         CLOUDY    52  35  52 NW8       29.76R
HAILEY         MOSUNNY   57  30  35 SE9       29.77S
STANLEY          N/A     52  23  32 S3        29.77S
SALMON         CLOUDY    59  36  41 NE12      29.74R
CHALLIS        CLOUDY    57  27  31 VRB6G18   29.74R
$$

IDZ002-004-006-007-026-260000-
NORTHERN IDAHO


CITY           SKY/WX    TMP DP  RH WIND       PRES   REMARKS
LEWISTON       PTSUNNY   60  40  47 W6        29.83F
LOWELL           N/A     62  38  40 SE3       29.80F
COEUR D`ALENE  FAIR      65  40  39 W12       29.83S
MULLAN PASS    CLOUDY    44  32  62 NW3       29.86S
$$




USA.gov is the U.S. government's official web portal to all federal, state and local government web resources and services.